[[{"header":{"parameterUnit":"m.s-1","parameterCategory":1,"la1":30.2991,"la2":30.254,"lo1":-89.0895,"lo2":-89.0444,"dy":0.0017,"dx":0.0017,"nx":28,"ny":28,"refTime":"2024-08-26T03:00:00:Z","depth":0,"parameterNumber":2,"parameterNumberName":"U-component_of_WINDS"},"data":[0,0,0,0,0,0,0,0,0,0,0,0,0,0,0,0,0,0,0,0,0,0,0,0,0,0,0,0,0,0,0,0,0,0,0,0,0,0,0,0,0,0,0,0,0,0,0,0,0,0,0,0,0,0,0,0,0,0,-1.832,-1.832,0,-1.8289,-1.8288,-1.8288,-1.8195,-1.8193,-1.8191,-1.8189,-1.816,-1.8161,-1.8162,0,0,0,0,0,0,0,0,0,0,0,0,0,-1.8304,-1.8304,-1.832,-1.832,-1.8319,-1.8289,-1.8288,-1.8288,-1.8196,-1.8193,-1.8191,-1.8188,-1.816,-1.8161,-1.8162,0,0,0,0,0,0,0,0,0,0,0,0,0,-1.8296,-1.8305,-1.832,-1.8269,-1.8265,-1.8289,-1.8288,-1.8288,-1.8196,-1.8193,-1.819,-1.8187,-1.8159,-1.8161,-1.8163,-1.8234,0,0,-1.8168,-1.8168,0,0,0,0,0,0,0,0,-1.8296,-1.8296,-1.8277,-1.8273,-1.8268,-1.8243,-1.8272,-1.827,-1.8197,-1.8222,-1.8189,-1.8186,-1.819,-1.8189,-1.819,-1.8233,-1.8231,-1.8168,-1.8169,-1.817,-1.817,0,0,0,0,0,0,0,-1.8297,-1.8297,-1.8308,-1.8277,-1.8271,-1.825,-1.8245,-1.8271,-1.8224,-1.822,-1.8213,-1.821,-1.8187,-1.8189,-1.8189,-1.8231,-1.8168,-1.8169,-1.817,-1.8171,-1.8332,-1.8335,0,0,0,0,0,0,-1.8304,-1.8298,-1.8309,-1.8307,-1.8274,-1.8252,-1.8247,-1.8254,-1.8223,-1.8216,-1.8213,-1.8206,-1.8187,-1.8187,-1.8187,-1.827,-1.817,-1.8171,-1.8172,-1.8329,-1.8333,-1.8336,0,0,0,0,0,0,-1.8304,-1.8306,-1.831,-1.83,-1.8299,-1.8256,-1.8264,-1.8255,-1.8256,-1.8218,-1.821,-1.8223,-1.8185,-1.8185,-1.8223,-1.8267,-1.8172,-1.8173,-1.8325,-1.833,-1.8335,-1.8435,0,0,0,0,0,0,-1.8304,-1.8306,-1.8332,-1.8302,-1.83,-1.8345,-1.8267,-1.8256,-1.8259,-1.825,-1.8225,-1.8218,-1.8183,-1.8221,-1.8225,-1.8268,-1.8175,-1.8321,-1.8327,-1.8333,-1.8427,-1.8442,-1.8455,0,0,0,0,0,-1.8304,-1.8362,-1.8334,-1.8336,-1.8331,-1.8348,-1.8347,-1.8304,-1.8263,-1.8289,-1.8265,-1.8219,-1.8262,-1.8226,-1.8229,-1.8273,-1.8318,-1.8326,-1.8333,-1.8421,-1.8439,-1.8455,0,0,0,0,0,0,-1.8399,-1.8357,-1.8325,-1.8375,-1.8366,-1.8332,-1.8364,-1.8325,-1.8327,-1.8319,-1.8266,-1.8261,-1.8307,-1.8294,-1.8255,-1.8342,-1.8283,-1.8291,-1.8348,-1.8366,-1.8379,-1.8382,-1.8176,0,0,0,0,0,-1.8426,-1.8442,-1.8404,-1.8452,-1.8449,-1.8408,-1.8413,-1.8381,-1.8369,-1.8365,-1.8344,-1.8335,-1.8347,-1.8356,-1.8364,-1.8425,-1.8419,-1.8457,-1.8471,-1.8483,-1.8491,-1.8523,-1.854,-1.8361,-1.8361,-1.836,0,0,-1.8481,-1.846,-1.8474,-1.8471,-1.846,-1.8479,-1.8405,-1.8428,-1.8442,-1.8369,-1.8403,-1.8388,-1.8375,-1.8426,-1.8447,-1.8416,-1.8539,-1.8492,-1.8502,-1.8503,-1.8533,-1.855,-1.8565,-1.8366,-1.8365,-1.8364,0,0,-1.8592,-1.8578,-1.8616,-1.8606,-1.8591,-1.8563,-1.8573,-1.8545,-1.8532,-1.8566,-1.8512,-1.8528,-1.8549,-1.8542,-1.8542,-1.8652,-1.8611,-1.8657,-1.873,-1.8762,-1.8777,-1.8789,-1.8829,-1.8844,-1.8665,-1.8665,-1.8665,0,-1.8663,-1.8689,-1.8641,-1.8668,-1.8669,-1.8603,-1.8643,-1.8636,-1.8625,-1.8627,-1.8593,-1.8618,-1.8605,-1.8654,-1.8681,-1.8682,-1.8692,-1.8659,-1.8778,-1.879,-1.8801,-1.8839,-1.8854,-1.8671,-1.867,-1.867,-1.8669,0,-1.8777,-1.8796,-1.8829,-1.8819,-1.8824,-1.8857,-1.8816,-1.8826,-1.8794,-1.8771,-1.8807,-1.8789,-1.8793,-1.8803,-1.8771,-1.8847,-1.8829,-1.8788,-1.8727,-1.8825,-1.8859,-1.8873,-1.8679,-1.8677,-1.8675,-1.8674,0,0,-1.8946,-1.891,-1.8923,-1.8918,-1.8897,-1.8911,-1.8942,-1.8945,-1.8956,-1.8951,-1.8976,-1.8996,-1.8958,-1.8958,-1.8925,-1.8954,-1.9044,-1.8909,-1.8908,-1.8935,-1.9127,-1.9158,-1.9176,-1.9016,-1.9019,-1.9021,-1.9128,0,-1.9051,-1.9101,-1.9059,-1.9117,-1.9135,-1.9074,-1.9101,-1.9092,-1.9071,-1.9084,-1.9062,-1.9077,-1.9025,-1.9024,-1.905,-1.9027,-1.9082,-1.9019,-1.904,-1.9042,-1.9045,-1.9194,-1.9226,-1.9329,-1.9141,-1.9144,-1.9145,0,-1.918,-1.918,-1.924,-1.9216,-1.9221,-1.9246,-1.9247,-1.926,-1.9249,-1.9232,-1.9232,-1.9193,-1.9223,-1.9164,-1.9206,-1.9164,-1.9171,-1.9161,-1.9164,-1.9164,-1.9099,-1.9198,-1.936,-1.9376,-1.9166,-1.9164,-1.9163,0,-1.9298,-1.9313,-1.9351,-1.9349,-1.9321,-1.934,-1.933,-1.9316,-1.9321,-1.9322,-1.9325,-1.933,-1.9333,-1.9339,-1.9303,-1.9263,-1.9349,-1.9287,-1.9337,-1.9338,-1.9358,-1.9357,-1.9523,-1.9362,-1.9362,-1.9362,-1.9361,0,-1.942,-1.9459,-1.9404,-1.9427,-1.9469,-1.9422,-1.9466,-1.945,-1.9438,-1.9458,-1.9406,-1.9426,-1.9377,-1.9392,-1.9364,-1.9404,-1.9405,-1.9393,-1.9386,-1.9398,-1.94,-1.9402,-1.9394,-1.9366,-1.9365,-1.9364,-1.9363,0,-1.9558,-1.9523,-1.956,-1.9531,-1.9525,-1.9558,-1.9534,-1.9555,-1.9531,-1.9557,-1.9561,-1.9524,-1.954,-1.9504,-1.9515,-1.9496,-1.9553,-1.9533,-1.9556,-1.955,-1.9603,-1.9598,-1.9776,-1.9797,-1.9623,-1.9624,-1.9626,0,-1.9638,-1.9667,-1.9641,-1.965,-1.9643,-1.9659,-1.9664,-1.9619,-1.9627,-1.9617,-1.964,-1.9651,-1.9658,-1.9686,-1.9662,-1.967,-1.9651,-1.9712,-1.9652,-1.9664,-1.9652,-1.9651,-1.9654,-1.9725,-1.9727,-1.9729,-1.973,0,-1.9784,-1.9765,-1.9774,-1.9778,-1.9785,-1.9786,-1.9783,-1.9794,-1.9747,-1.9758,-1.9773,-1.9779,-1.979,-1.9802,-1.9805,-1.9796,-1.9756,-1.975,-1.9762,-1.9775,-1.9787,-1.9782,-1.9591,-1.9746,-1.9744,-1.9743,-1.9742,-1.9742,-1.9896,-1.9919,-1.9905,-1.9917,-1.991,-1.9909,-1.9927,-1.9906,-1.9918,-1.9923,-1.9896,-1.9918,-1.9907,-1.9907,-1.9902,-1.9919,-1.9891,-1.9909,-1.9913,-1.9918,-1.9927,-1.9785,-1.992,-1.9919,-1.9919,-1.9918,-1.9918,0,-2.004,-2.0028,-2.0039,-2.0037,-2.0047,-2.0008,-2.0003,-2.0014,-2.0033,-2.0027,-2.0034,-2.0053,-2.0065,-2.0041,-2.005,-2.0068,-2.005,-2.0072,-2.007,-2.0069,-1.9951,-1.994,-2.0087,-2.0086,-2.0086,-2.0086,-2.0086,-2.0086,-2.0115,-2.0152,-2.0133,-2.0166,-2.0154,-2.0174,-2.0175,-2.0174,-2.0169,-2.0191,-2.0201,-2.0185,-2.0172,-2.018,-2.019,-2.0183,-2.0188,-2.0217,-2.0204,-2.0094,-2.0077,-2.0062,-2.0051,-2.0218,-2.0219,-2.032,-2.0321,-2.0322]},{"header":{"parameterUnit":"m.s-1","parameterCategory":1,"la1":30.2991,"la2":30.254,"lo1":-89.0895,"lo2":-89.0444,"dy":0.0017,"dx":0.0017,"nx":28,"ny":28,"refTime":"2024-08-26T03:00:00:Z","depth":0,"parameterNumber":3,"parameterNumberName":"V-component_of_WINDS"},"data":[0,0,0,0,0,0,0,0,0,0,0,0,0,0,0,0,0,0,0,0,0,0,0,0,0,0,0,0,0,0,0,0,0,0,0,0,0,0,0,0,0,0,0,0,0,0,0,0,0,0,0,0,0,0,0,0,0,0,2.86,2.86,0,2.8606,2.8606,2.8606,2.862,2.862,2.8621,2.8621,2.8625,2.8625,2.8624,0,0,0,0,0,0,0,0,0,0,0,0,0,2.8599,2.8599,2.86,2.86,2.86,2.8606,2.8606,2.8606,2.862,2.862,2.8621,2.8621,2.8625,2.8625,2.8624,0,0,0,0,0,0,0,0,0,0,0,0,0,2.8602,2.8599,2.86,2.8608,2.8609,2.8606,2.8606,2.8606,2.862,2.862,2.8621,2.8621,2.8625,2.8625,2.8624,2.8614,0,0,2.8624,2.8624,0,0,0,0,0,0,0,0,2.8602,2.8602,2.8607,2.8607,2.8608,2.8613,2.8607,2.8609,2.862,2.8616,2.8621,2.8621,2.862,2.862,2.8621,2.8614,2.8614,2.8624,2.8623,2.8623,2.8623,0,0,0,0,0,0,0,2.8601,2.8602,2.8602,2.8607,2.8608,2.8611,2.8611,2.8608,2.8615,2.8616,2.8617,2.8618,2.8621,2.8621,2.8621,2.8615,2.8624,2.8623,2.8623,2.8623,2.86,2.86,0,0,0,0,0,0,2.86,2.8601,2.8602,2.8603,2.8606,2.861,2.8611,2.8611,2.8615,2.8617,2.8617,2.8618,2.8621,2.8621,2.8621,2.8609,2.8623,2.8623,2.8623,2.8601,2.86,2.86,0,0,0,0,0,0,2.86,2.86,2.8602,2.8602,2.8603,2.861,2.8609,2.8611,2.8611,2.8616,2.8618,2.8616,2.8621,2.8621,2.8616,2.8609,2.8623,2.8623,2.8601,2.8601,2.86,2.8585,0,0,0,0,0,0,2.86,2.86,2.8597,2.8602,2.8603,2.8597,2.8609,2.8611,2.8611,2.8612,2.8615,2.8616,2.8622,2.8616,2.8616,2.8609,2.8623,2.8602,2.8601,2.86,2.8586,2.8584,2.8582,0,0,0,0,0,2.86,2.8592,2.8596,2.8596,2.8598,2.8597,2.8597,2.8604,2.861,2.8606,2.861,2.8616,2.8611,2.8616,2.8615,2.8608,2.8602,2.8601,2.86,2.8587,2.8585,2.8582,0,0,0,0,0,0,2.8584,2.8592,2.8598,2.8591,2.8593,2.8599,2.8595,2.8601,2.8601,2.8602,2.861,2.861,2.8604,2.8606,2.8611,2.8599,2.8607,2.8606,2.8598,2.8595,2.8593,2.8592,2.8622,0,0,0,0,0,2.858,2.8579,2.8586,2.8579,2.858,2.8587,2.8587,2.8592,2.8594,2.8595,2.8598,2.86,2.8598,2.8597,2.8596,2.8587,2.8588,2.8582,2.858,2.8579,2.8577,2.8572,2.857,2.8596,2.8596,2.8596,0,0,2.8571,2.8576,2.8574,2.8576,2.8578,2.8576,2.8588,2.8585,2.8583,2.8594,2.859,2.8592,2.8594,2.8587,2.8584,2.8589,2.857,2.8577,2.8576,2.8575,2.8571,2.8569,2.8566,2.8596,2.8596,2.8596,0,0,2.8554,2.8557,2.8552,2.8555,2.8558,2.8563,2.8562,2.8567,2.857,2.8565,2.8574,2.8572,2.8569,2.857,2.857,2.8555,2.856,2.8554,2.8543,2.8538,2.8536,2.8534,2.8528,2.8526,2.8553,2.8553,2.8553,0,2.8542,2.8539,2.8548,2.8545,2.8546,2.8557,2.8551,2.8553,2.8556,2.8556,2.8561,2.8558,2.8561,2.8554,2.855,2.855,2.8549,2.8553,2.8536,2.8534,2.8533,2.8527,2.8524,2.8552,2.8552,2.8552,2.8552,0,2.8525,2.8523,2.8518,2.8522,2.8522,2.8517,2.8525,2.8524,2.853,2.8534,2.8529,2.8533,2.8533,2.8532,2.8537,2.8526,2.8528,2.8535,2.8543,2.8529,2.8523,2.8521,2.8551,2.8551,2.8551,2.8552,0,0,2.8496,2.8505,2.8503,2.8505,2.851,2.8509,2.8505,2.8506,2.8505,2.8507,2.8503,2.8501,2.8508,2.8508,2.8513,2.8509,2.8496,2.8516,2.8516,2.8512,2.8483,2.8478,2.8475,2.8501,2.85,2.85,2.8483,0,2.8479,2.8473,2.8482,2.8474,2.8472,2.8484,2.848,2.8483,2.8487,2.8486,2.8491,2.8489,2.8497,2.8498,2.8494,2.8498,2.849,2.85,2.8496,2.8496,2.8494,2.8472,2.8466,2.845,2.8481,2.8481,2.848,0,2.8458,2.846,2.8452,2.8459,2.8458,2.8455,2.8456,2.8456,2.8459,2.8462,2.8463,2.847,2.8466,2.8476,2.8471,2.8477,2.8476,2.8478,2.8478,2.8476,2.8486,2.847,2.8445,2.8442,2.8477,2.8477,2.8478,0,2.8437,2.8437,2.8433,2.8434,2.8442,2.8439,2.8442,2.8446,2.8446,2.8448,2.8448,2.8448,2.8448,2.8448,2.8455,2.8461,2.8449,2.8459,2.8451,2.845,2.8446,2.8446,2.842,2.8448,2.8448,2.8448,2.8448,0,2.8416,2.8411,2.8424,2.8421,2.8415,2.8425,2.8419,2.8423,2.8427,2.8424,2.8434,2.8432,2.8441,2.844,2.8445,2.844,2.844,2.8442,2.8443,2.844,2.844,2.8439,2.844,2.8447,2.8447,2.8447,2.8447,0,2.8391,2.8399,2.8395,2.8403,2.8405,2.84,2.8407,2.8404,2.841,2.8407,2.8407,2.8415,2.8414,2.8421,2.8421,2.8424,2.8416,2.8419,2.8415,2.8415,2.8406,2.8407,2.8378,2.8374,2.8405,2.8405,2.8405,0,2.8377,2.8373,2.8381,2.8381,2.8383,2.8382,2.8383,2.8393,2.8392,2.8397,2.8393,2.8393,2.8393,2.8391,2.8396,2.8396,2.8399,2.8389,2.8399,2.8397,2.8398,2.8398,2.8397,2.8387,2.8386,2.8386,2.8386,0,2.835,2.8355,2.8355,2.8357,2.8358,2.836,2.8362,2.8361,2.8372,2.8371,2.8371,2.8371,2.8371,2.8371,2.8372,2.8374,2.8381,2.8383,2.8381,2.8377,2.8374,2.8375,2.8408,2.8383,2.8383,2.8384,2.8384,2.8384,2.8329,2.8327,2.8332,2.8332,2.8335,2.8338,2.8336,2.8341,2.8341,2.8343,2.8349,2.8347,2.8351,2.8353,2.8355,2.8354,2.8358,2.8355,2.8354,2.8353,2.8351,2.8376,2.8354,2.8354,2.8354,2.8354,2.8354,0,2.8303,2.8307,2.8307,2.8311,2.8311,2.8319,2.8323,2.8322,2.8321,2.8324,2.8324,2.8324,2.8323,2.8329,2.833,2.8327,2.833,2.8327,2.8326,2.8327,2.8348,2.8349,2.8324,2.8324,2.8324,2.8324,2.8324,2.8324,2.8289,2.8284,2.829,2.8287,2.8291,2.829,2.8291,2.8293,2.8296,2.8295,2.8295,2.83,2.8304,2.8305,2.8305,2.8307,2.8306,2.8301,2.8303,2.8322,2.8325,2.8328,2.8329,2.8301,2.8301,2.8282,2.8282,2.8282]}]]